This demonstration page uses our WeatherBlox Daily Observations layout. Learn more.

Left ArrowRight Arrow

36.17497, -115.13722

Hourly Observations for January 28, 2017

Temp ( °F °C ) Dew Point ( °F °C ) Humidity (%) Winds ( mph kmh ) Pressure ( in mb ) Visibility ( mi km ) Precip ( " mm )
12:53 am 00:53 Clear 40 4.4 17 -8.3 40 40 NNW 5 7 30.71 1040 10 16 N/A
1:53 am 01:53 Clear 41 5 17 -8.3 38 38 WNW 7 11 30.72 1040 10 16 N/A
2:53 am 02:53 Clear 39 3.9 17 -8.3 41 41 NNW 7 11 30.72 1040 10 16 N/A
3:53 am 03:53 Clear 38 3.3 18 -7.8 44 44 WSW 8 13 30.71 1040 10 16 N/A
4:53 am 04:53 Clear 35 1.7 19 -7.2 52 52 W 6 9 30.72 1040 10 16 N/A
5:53 am 05:53 Clear 35 1.7 19 -7.2 52 52 N N/A 30.72 1040 10 16 N/A
6:53 am 06:53 Sunny 36 2.2 18 -7.8 48 48 N 8 13 30.73 1041 10 16 N/A
7:53 am 07:53 Sunny 39 3.9 17 -8.3 41 41 NW 12 19 30.73 1041 10 16 N/A
8:03 am 08:03 Sunny 39 4 18 -8 42 42 WNW 12 19 30.71 1040 10 16 N/A
8:53 am 08:53 Sunny 42 5.6 18 -7.8 38 38 NNW 7 11 30.76 1042 10 16 N/A
9:53 am 09:53 Sunny 45 7.2 15 -9.4 30 30 NW 5 7 30.74 1041 10 16 N/A
10:53 am 10:53 Sunny 47 8.3 16 -8.9 29 29 SSE 6 9 30.70 1040 10 16 N/A
11:53 am 11:53 Sunny 50 10 16 -8.9 26 26 E 7 11 30.68 1039 10 16 N/A
12:53 pm 12:53 Sunny 51 10.6 16 -8.9 25 25 SSE 7 11 30.64 1038 10 16 N/A
1:53 pm 13:53 Sunny 53 11.7 17 -8.3 24 24 S 3 6 30.61 1037 10 16 N/A
2:53 pm 14:53 Sunny 55 12.8 17 -8.3 22 22 SE 5 7 30.60 1036 10 16 N/A
3:53 pm 15:53 Sunny 56 13.3 19 -7.2 24 24 ESE 8 13 30.59 1036 10 16 N/A
4:53 pm 16:53 Sunny 54 12.2 19 -7.2 25 25 N N/A 30.58 1036 10 16 N/A
5:53 pm 17:53 Clear 51 10.6 21 -6.1 31 31 SSE 3 6 30.60 1036 10 16 N/A
6:53 pm 18:53 Clear 49 9.4 22 -5.6 35 35 N 7 11 30.60 1036 10 16 N/A
7:53 pm 19:53 Clear 48 8.9 21 -6.1 34 34 ENE 5 7 30.59 1036 10 16 N/A
8:53 pm 20:53 Clear 49 9.4 20 -6.7 32 32 NE 9 15 30.60 1036 10 16 N/A
9:53 pm 21:53 Clear 48 8.9 20 -6.7 33 33 N N/A 30.60 1036 10 16 N/A
10:53 pm 22:53 Clear 46 7.8 22 -5.6 38 38 WNW 5 7 30.60 1036 10 16 N/A
11:53 pm 23:53 Clear 46 7.8 22 -5.6 38 38 NNW 13 20 30.58 1036 10 16 N/A

Powered by AerisWeather